Time,TemperatureF,DewpointF,PressureIn,WindDirection,WindDirectionDegrees,WindSpeedMPH,WindSpeedGustMPH,Humidity,HourlyPrecipIn,Conditions,Clouds,dailyrainin,SoftwareType,DateUTC
2013-01-15 00:00:00,13.7,3.8,30.43,NNE,13,0.0,0.0,64,0.00,,,0.02,Wunderground v.1.15,2013-01-15 07:00:00,
2013-01-15 00:05:00,13.5,3.9,30.43,NNE,13,0.0,0.0,65,0.00,,,0.00,Wunderground v.1.15,2013-01-15 07:05:00,
2013-01-15 00:10:00,13.1,3.5,30.44,NNE,13,0.0,0.0,65,0.00,,,0.00,Wunderground v.1.15,2013-01-15 07:10:00,
2013-01-15 00:20:00,12.5,3.6,30.44,NNE,13,0.0,0.0,67,0.00,,,0.00,Wunderground v.1.15,2013-01-15 07:20:00,
2013-01-15 00:25:00,12.1,3.2,30.44,NNE,13,0.0,0.0,67,0.00,,,0.00,Wunderground v.1.15,2013-01-15 07:25:00,
2013-01-15 00:30:00,11.8,3.6,30.44,NNE,13,0.0,0.0,69,0.00,,,0.00,Wunderground v.1.15,2013-01-15 07:30:00,
2013-01-15 00:35:00,11.6,3.4,30.44,NNE,13,0.0,0.0,69,0.00,,,0.00,Wunderground v.1.15,2013-01-15 07:35:00,
2013-01-15 00:40:00,11.6,3.4,30.44,NNE,13,0.0,0.0,69,0.00,,,0.00,Wunderground v.1.15,2013-01-15 07:40:00,
2013-01-15 00:45:00,11.9,3.4,30.44,NNE,15,0.0,1.0,68,0.00,,,0.00,Wunderground v.1.15,2013-01-15 07:45:00,
2013-01-15 00:50:00,12.4,3.5,30.44,North,360,0.0,0.0,67,0.00,,,0.00,Wunderground v.1.15,2013-01-15 07:50:00,
2013-01-15 00:55:00,12.7,3.1,30.44,NNE,21,1.0,1.0,65,0.00,,,0.00,Wunderground v.1.15,2013-01-15 07:55:00,
2013-01-15 01:00:00,12.9,3.3,30.44,NNE,21,1.0,1.0,65,0.00,,,0.00,Wunderground v.1.15,2013-01-15 08:00:00,
2013-01-15 01:05:00,12.9,3.0,30.45,NNE,21,0.0,1.0,64,0.00,,,0.00,Wunderground v.1.15,2013-01-15 08:05:00,
2013-01-15 01:10:00,12.8,2.9,30.45,North,5,0.0,0.0,64,0.00,,,0.00,Wunderground v.1.15,2013-01-15 08:10:00,
2013-01-15 01:15:00,12.7,2.5,30.45,NE,41,1.0,1.0,63,0.00,,,0.00,Wunderground v.1.15,2013-01-15 08:15:00,
2013-01-15 01:20:00,12.6,2.0,30.45,North,5,1.0,1.0,62,0.00,,,0.00,Wunderground v.1.15,2013-01-15 08:20:00,
2013-01-15 01:25:00,12.5,1.9,30.46,North,5,0.0,1.0,62,0.00,,,0.00,Wunderground v.1.15,2013-01-15 08:25:00,
2013-01-15 01:30:00,12.4,1.8,30.46,North,11,0.0,2.0,62,0.00,,,0.00,Wunderground v.1.15,2013-01-15 08:30:00,
2013-01-15 01:35:00,12.3,1.7,30.46,North,11,0.0,2.0,62,0.00,,,0.00,Wunderground v.1.15,2013-01-15 08:35:00,
2013-01-15 01:40:00,12.2,2.0,30.46,North,11,0.0,0.0,63,0.00,,,0.00,Wunderground v.1.15,2013-01-15 08:40:00,
2013-01-15 01:45:00,11.9,1.7,30.46,North,11,0.0,0.0,63,0.00,,,0.00,Wunderground v.1.15,2013-01-15 08:45:00,
2013-01-15 01:55:00,11.2,1.0,30.47,North,11,0.0,0.0,63,0.00,,,0.00,Wunderground v.1.15,2013-01-15 08:55:00,
2013-01-15 02:00:00,10.7,0.9,30.47,North,11,0.0,0.0,64,0.00,,,0.00,Wunderground v.1.15,2013-01-15 09:00:00,
2013-01-15 02:05:00,10.3,0.9,30.47,North,11,0.0,0.0,65,0.00,,,0.00,Wunderground v.1.15,2013-01-15 09:05:00,
2013-01-15 02:10:00,9.9,0.5,30.47,North,11,0.0,0.0,65,0.00,,,0.00,Wunderground v.1.15,2013-01-15 09:10:00,
2013-01-15 02:15:00,9.4,0.0,30.47,North,11,0.0,0.0,65,0.00,,,0.00,Wunderground v.1.15,2013-01-15 09:15:00,
2013-01-15 02:20:00,8.9,0.2,30.47,North,11,0.0,0.0,67,0.00,,,0.00,Wunderground v.1.15,2013-01-15 09:20:00,
2013-01-15 02:25:00,8.6,0.2,30.48,North,11,0.0,0.0,68,0.00,,,0.00,Wunderground v.1.15,2013-01-15 09:25:00,
2013-01-15 02:30:00,8.5,0.7,30.48,North,11,0.0,0.0,70,0.00,,,0.00,Wunderground v.1.15,2013-01-15 09:30:00,
2013-01-15 02:35:00,8.5,0.7,30.48,North,11,0.0,0.0,70,0.00,,,0.00,Wunderground v.1.15,2013-01-15 09:35:00,
2013-01-15 02:45:00,8.2,0.4,30.48,North,11,0.0,0.0,70,0.00,,,0.00,Wunderground v.1.15,2013-01-15 09:45:00,
2013-01-15 02:50:00,7.9,0.1,30.48,North,11,0.0,0.0,70,0.00,,,0.00,Wunderground v.1.15,2013-01-15 09:50:00,
2013-01-15 02:55:00,7.8,0.3,30.48,North,11,0.0,0.0,71,0.00,,,0.00,Wunderground v.1.15,2013-01-15 09:55:00,
2013-01-15 03:00:00,7.7,0.5,30.48,North,11,0.0,0.0,72,0.00,,,0.00,Wunderground v.1.15,2013-01-15 10:00:00,
2013-01-15 03:05:00,7.4,0.0,30.48,North,11,0.0,0.0,71,0.00,,,0.00,Wunderground v.1.15,2013-01-15 10:05:00,
2013-01-15 03:10:00,7.2,-0.2,30.49,North,11,0.0,0.0,71,0.00,,,0.00,Wunderground v.1.15,2013-01-15 10:10:00,
2013-01-15 03:15:00,6.9,-0.2,30.49,North,11,0.0,0.0,72,0.00,,,0.00,Wunderground v.1.15,2013-01-15 10:15:00,
2013-01-15 04:30:00,4.9,-1.6,30.51,North,11,0.0,0.0,74,0.00,,,0.00,Wunderground v.1.15,2013-01-15 11:30:00,
2013-01-15 04:35:00,4.9,-1.3,30.51,North,11,0.0,0.0,75,0.00,,,0.00,Wunderground v.1.15,2013-01-15 11:35:00,
2013-01-15 04:40:00,4.9,-1.3,30.51,North,11,0.0,0.0,75,0.00,,,0.00,Wunderground v.1.15,2013-01-15 11:40:00,
2013-01-15 04:45:00,4.7,-1.5,30.51,North,11,0.0,0.0,75,0.00,,,0.00,Wunderground v.1.15,2013-01-15 11:45:00,
2013-01-15 04:50:00,4.6,-1.6,30.51,North,11,0.0,0.0,75,0.00,,,0.00,Wunderground v.1.15,2013-01-15 11:50:00,
2013-01-15 04:55:00,4.4,-1.8,30.51,North,11,0.0,0.0,75,0.00,,,0.00,Wunderground v.1.15,2013-01-15 11:55:00,
2013-01-15 05:00:00,4.2,-2.0,30.51,North,11,0.0,0.0,75,0.00,,,0.00,Wunderground v.1.15,2013-01-15 12:00:00,
2013-01-15 05:05:00,4.0,-2.2,30.51,North,11,0.0,0.0,75,0.00,,,0.00,Wunderground v.1.15,2013-01-15 12:05:00,
2013-01-15 05:10:00,3.9,-2.0,30.51,North,11,0.0,0.0,76,0.00,,,0.00,Wunderground v.1.15,2013-01-15 12:10:00,
2013-01-15 05:15:00,4.1,-1.8,30.51,North,11,0.0,0.0,76,0.00,,,0.00,Wunderground v.1.15,2013-01-15 12:15:00,
2013-01-15 05:20:00,4.1,-1.8,30.51,North,11,0.0,0.0,76,0.00,,,0.00,Wunderground v.1.15,2013-01-15 12:20:00,
2013-01-15 05:25:00,4.2,-1.7,30.51,North,11,0.0,0.0,76,0.00,,,0.00,Wunderground v.1.15,2013-01-15 12:25:00,
2013-01-15 05:30:00,4.2,-1.7,30.51,North,11,0.0,0.0,76,0.00,,,0.00,Wunderground v.1.15,2013-01-15 12:30:00,
2013-01-15 05:35:00,4.1,-1.8,30.51,North,11,0.0,0.0,76,0.00,,,0.00,Wunderground v.1.15,2013-01-15 12:35:00,
2013-01-15 05:40:00,4.2,-1.7,30.51,North,11,0.0,0.0,76,0.00,,,0.00,Wunderground v.1.15,2013-01-15 12:40:00,
2013-01-15 05:45:00,4.2,-1.7,30.52,North,11,0.0,0.0,76,0.00,,,0.00,Wunderground v.1.15,2013-01-15 12:45:00,
2013-01-15 05:50:00,4.2,-1.7,30.52,North,11,0.0,0.0,76,0.00,,,0.00,Wunderground v.1.15,2013-01-15 12:50:00,
2013-01-15 05:55:00,4.1,-1.8,30.52,North,11,0.0,0.0,76,0.00,,,0.00,Wunderground v.1.15,2013-01-15 12:55:00,
2013-01-15 06:00:00,4.0,-1.9,30.52,North,11,0.0,0.0,76,0.00,,,0.00,Wunderground v.1.15,2013-01-15 13:00:00,
2013-01-15 06:05:00,3.9,-2.3,30.52,North,11,0.0,0.0,75,0.00,,,0.00,Wunderground v.1.15,2013-01-15 13:05:00,
2013-01-15 06:10:00,3.9,-2.0,30.52,North,11,0.0,0.0,76,0.00,,,0.00,Wunderground v.1.15,2013-01-15 13:10:00,
2013-01-15 06:20:00,3.5,-2.7,30.53,North,11,0.0,0.0,75,0.00,,,0.00,Wunderground v.1.15,2013-01-15 13:20:00,
2013-01-15 06:25:00,3.3,-2.8,30.53,North,11,0.0,0.0,75,0.00,,,0.00,Wunderground v.1.15,2013-01-15 13:25:00,
2013-01-15 06:30:00,3.1,-3.0,30.54,North,11,0.0,0.0,75,0.00,,,0.00,Wunderground v.1.15,2013-01-15 13:30:00,
2013-01-15 06:35:00,3.0,-3.1,30.54,North,11,0.0,0.0,75,0.00,,,0.00,Wunderground v.1.15,2013-01-15 13:35:00,
2013-01-15 06:40:00,2.8,-3.3,30.54,North,11,0.0,0.0,75,0.00,,,0.00,Wunderground v.1.15,2013-01-15 13:40:00,
2013-01-15 06:45:00,2.8,-3.1,30.55,North,11,0.0,0.0,76,0.00,,,0.00,Wunderground v.1.15,2013-01-15 13:45:00,
2013-01-15 06:50:00,2.8,-3.1,30.56,North,11,0.0,0.0,76,0.00,,,0.00,Wunderground v.1.15,2013-01-15 13:50:00,
2013-01-15 06:55:00,2.8,-3.1,30.56,North,11,0.0,0.0,76,0.00,,,0.00,Wunderground v.1.15,2013-01-15 13:55:00,
2013-01-15 07:00:00,3.3,-2.6,30.56,North,11,0.0,0.0,76,0.00,,,0.00,Wunderground v.1.15,2013-01-15 14:00:00,
2013-01-15 07:05:00,3.5,-2.4,30.56,North,11,0.0,0.0,76,0.00,,,0.00,Wunderground v.1.15,2013-01-15 14:05:00,
2013-01-15 07:10:00,3.6,-2.6,30.56,North,11,0.0,0.0,75,0.00,,,0.00,Wunderground v.1.15,2013-01-15 14:10:00,
2013-01-15 07:20:00,3.4,-2.7,30.57,North,11,0.0,0.0,75,0.00,,,0.00,Wunderground v.1.15,2013-01-15 14:20:00,
2013-01-15 07:25:00,3.3,-2.8,30.57,North,11,0.0,0.0,75,0.00,,,0.00,Wunderground v.1.15,2013-01-15 14:25:00,
2013-01-15 07:30:00,3.4,-2.7,30.57,North,11,0.0,0.0,75,0.00,,,0.00,Wunderground v.1.15,2013-01-15 14:30:00,
2013-01-15 07:35:00,4.1,-2.1,30.58,North,11,0.0,0.0,75,0.00,,,0.00,Wunderground v.1.15,2013-01-15 14:35:00,
2013-01-15 07:40:00,4.7,-1.8,30.58,North,11,0.0,0.0,74,0.00,,,0.00,Wunderground v.1.15,2013-01-15 14:40:00,
2013-01-15 07:45:00,5.1,-1.4,30.58,North,11,0.0,0.0,74,0.00,,,0.00,Wunderground v.1.15,2013-01-15 14:45:00,
2013-01-15 07:50:00,6.4,-1.0,30.58,North,11,0.0,1.0,71,0.00,,,0.00,Wunderground v.1.15,2013-01-15 14:50:00,
2013-01-15 07:55:00,7.5,-1.2,30.59,NNE,12,1.0,2.0,67,0.00,,,0.00,Wunderground v.1.15,2013-01-15 14:55:00,
2013-01-15 08:00:00,8.2,-1.2,30.59,North,11,0.0,0.0,65,0.00,,,0.00,Wunderground v.1.15,2013-01-15 15:00:00,
2013-01-15 08:05:00,8.9,-1.1,30.59,North,10,1.0,2.0,63,0.00,,,0.00,Wunderground v.1.15,2013-01-15 15:05:00,
2013-01-15 08:10:00,9.3,-1.4,30.59,NNW,338,1.0,2.0,61,0.00,,,0.00,Wunderground v.1.15,2013-01-15 15:10:00,
2013-01-15 08:15:00,9.7,-1.1,30.60,NNW,336,1.0,2.0,61,0.00,,,0.00,Wunderground v.1.15,2013-01-15 15:15:00,
2013-01-15 08:20:00,10.1,-1.0,30.60,NNW,336,1.0,1.0,60,0.00,,,0.00,Wunderground v.1.15,2013-01-15 15:20:00,
2013-01-15 08:25:00,10.8,-1.5,30.60,NE,46,1.0,2.0,57,0.00,,,0.00,Wunderground v.1.15,2013-01-15 15:25:00,
2013-01-15 08:30:00,11.3,-1.8,30.60,NNW,341,2.0,3.0,55,0.00,,,0.00,Wunderground v.1.15,2013-01-15 15:30:00,
2013-01-15 08:35:00,11.6,-2.3,30.60,North,5,3.0,5.0,53,0.00,,,0.00,Wunderground v.1.15,2013-01-15 15:35:00,
2013-01-15 08:40:00,11.9,-2.4,30.60,North,350,4.0,4.0,52,0.00,,,0.00,Wunderground v.1.15,2013-01-15 15:40:00,
2013-01-15 08:45:00,12.3,-2.0,30.61,North,355,4.0,5.0,52,0.00,,,0.00,Wunderground v.1.15,2013-01-15 15:45:00,
2013-01-15 08:50:00,12.6,-2.6,30.61,NE,54,3.0,3.0,50,0.00,,,0.00,Wunderground v.1.15,2013-01-15 15:50:00,
2013-01-15 08:55:00,12.7,-2.5,30.62,NW,325,4.0,5.0,50,0.00,,,0.00,Wunderground v.1.15,2013-01-15 15:55:00,
2013-01-15 09:00:00,12.9,-2.3,30.62,NNE,19,4.0,4.0,50,0.00,,,0.00,Wunderground v.1.15,2013-01-15 16:00:00,
2013-01-15 09:05:00,13.2,-2.0,30.63,NNE,18,4.0,6.0,50,0.00,,,0.00,Wunderground v.1.15,2013-01-15 16:05:00,
2013-01-15 09:10:00,13.1,-2.5,30.63,NNE,22,4.0,7.0,49,0.00,,,0.00,Wunderground v.1.15,2013-01-15 16:10:00,
2013-01-15 09:15:00,13.2,-2.4,30.63,North,355,4.0,7.0,49,0.00,,,0.00,Wunderground v.1.15,2013-01-15 16:15:00,
2013-01-15 09:20:00,13.4,-2.7,30.63,North,355,4.0,4.0,48,0.00,,,0.00,Wunderground v.1.15,2013-01-15 16:20:00,
2013-01-15 09:25:00,13.6,-2.1,30.63,NNE,13,3.0,4.0,49,0.00,,,0.00,Wunderground v.1.15,2013-01-15 16:25:00,
2013-01-15 09:30:00,13.9,-2.2,30.64,NW,313,3.0,3.0,48,0.00,,,0.00,Wunderground v.1.15,2013-01-15 16:30:00,
2013-01-15 09:35:00,13.9,-2.2,30.64,NNE,15,3.0,4.0,48,0.00,,,0.00,Wunderground v.1.15,2013-01-15 16:35:00,
2013-01-15 09:40:00,14.1,-2.5,30.64,NE,40,3.0,4.0,47,0.00,,,0.00,Wunderground v.1.15,2013-01-15 16:40:00,
2013-01-15 09:45:00,14.1,-2.5,30.65,NNE,26,4.0,4.0,47,0.00,,,0.00,Wunderground v.1.15,2013-01-15 16:45:00,
2013-01-15 09:50:00,14.3,-2.3,30.65,NE,51,4.0,4.0,47,0.00,,,0.00,Wunderground v.1.15,2013-01-15 16:50:00,
2013-01-15 10:00:00,14.4,-2.2,30.65,NE,45,4.0,4.0,47,0.00,,,0.00,Wunderground v.1.15,2013-01-15 17:00:00,
2013-01-15 10:05:00,14.3,-2.3,30.65,North,355,4.0,4.0,47,0.00,,,0.00,Wunderground v.1.15,2013-01-15 17:05:00,
2013-01-15 10:10:00,14.5,-1.7,30.66,NNW,333,5.0,5.0,48,0.00,,,0.00,Wunderground v.1.15,2013-01-15 17:10:00,
2013-01-15 10:15:00,14.7,-1.5,30.65,NNE,22,4.0,5.0,48,0.00,,,0.00,Wunderground v.1.15,2013-01-15 17:15:00,
2013-01-15 10:20:00,15.0,-1.2,30.65,NNE,22,4.0,4.0,48,0.00,,,0.00,Wunderground v.1.15,2013-01-15 17:20:00,
2013-01-15 10:25:00,15.5,-0.7,30.65,NNE,26,3.0,4.0,48,0.00,,,0.00,Wunderground v.1.15,2013-01-15 17:25:00,
2013-01-15 10:30:00,15.6,-0.6,30.65,NW,311,3.0,4.0,48,0.00,,,0.00,Wunderground v.1.15,2013-01-15 17:30:00,
2013-01-15 10:35:00,15.9,-0.8,30.65,North,355,3.0,8.0,47,0.00,,,0.00,Wunderground v.1.15,2013-01-15 17:35:00,
2013-01-15 10:40:00,15.6,-1.5,30.65,NNW,344,4.0,4.0,46,0.00,,,0.00,Wunderground v.1.15,2013-01-15 17:40:00,
2013-01-15 10:45:00,15.9,-0.4,30.65,NW,313,4.0,4.0,48,0.00,,,0.00,Wunderground v.1.15,2013-01-15 17:45:00,
2013-01-15 10:50:00,16.6,0.7,30.64,NE,45,3.0,6.0,49,0.00,,,0.00,Wunderground v.1.15,2013-01-15 17:50:00,
2013-01-15 10:55:00,16.6,0.7,30.65,NNW,340,4.0,6.0,49,0.00,,,0.00,Wunderground v.1.15,2013-01-15 17:55:00,
2013-01-15 11:05:00,17.2,0.4,30.64,NNE,24,4.0,4.0,47,0.00,,,0.00,Wunderground v.1.15,2013-01-15 18:05:00,
2013-01-15 11:10:00,17.3,0.9,30.64,East,82,4.0,4.0,48,0.00,,,0.00,Wunderground v.1.15,2013-01-15 18:10:00,
2013-01-15 11:15:00,17.4,-0.4,30.63,NE,40,4.0,6.0,45,0.00,,,0.00,Wunderground v.1.15,2013-01-15 18:15:00,
2013-01-15 11:20:00,17.9,1.5,30.63,NE,35,3.0,3.0,48,0.00,,,0.00,Wunderground v.1.15,2013-01-15 18:20:00,
2013-01-15 11:25:00,18.5,1.6,30.63,NW,319,3.0,8.0,47,0.00,,,0.00,Wunderground v.1.15,2013-01-15 18:25:00,
2013-01-15 11:30:00,18.7,1.8,30.63,NNE,13,4.0,9.0,47,0.00,,,0.00,Wunderground v.1.15,2013-01-15 18:30:00,
2013-01-15 11:35:00,18.6,0.3,30.62,NNE,26,4.0,9.0,44,0.00,,,0.00,Wunderground v.1.15,2013-01-15 18:35:00,
2013-01-15 11:40:00,18.9,1.5,30.61,NNW,329,3.0,3.0,46,0.00,,,0.00,Wunderground v.1.15,2013-01-15 18:40:00,
2013-01-15 11:45:00,19.6,0.7,30.61,NE,40,4.0,4.0,43,0.00,,,0.00,Wunderground v.1.15,2013-01-15 18:45:00,
2013-01-15 11:50:00,19.7,0.8,30.61,NNE,12,4.0,5.0,43,0.00,,,0.00,Wunderground v.1.15,2013-01-15 18:50:00,
2013-01-15 11:55:00,20.1,1.6,30.61,NNW,348,4.0,5.0,44,0.00,,,0.00,Wunderground v.1.15,2013-01-15 18:55:00,
2013-01-15 12:00:00,20.2,1.2,30.61,NE,53,4.0,4.0,43,0.00,,,0.00,Wunderground v.1.15,2013-01-15 19:00:00,
2013-01-15 12:05:00,20.5,2.0,30.61,NW,316,4.0,4.0,44,0.00,,,0.00,Wunderground v.1.15,2013-01-15 19:05:00,
2013-01-15 12:10:00,20.5,1.5,30.61,NNE,26,3.0,10.0,43,0.00,,,0.00,Wunderground v.1.15,2013-01-15 19:10:00,
2013-01-15 12:15:00,20.5,2.0,30.61,NNW,344,4.0,10.0,44,0.00,,,0.00,Wunderground v.1.15,2013-01-15 19:15:00,
2013-01-15 12:20:00,20.9,2.4,30.61,North,11,4.0,4.0,44,0.00,,,0.00,Wunderground v.1.15,2013-01-15 19:20:00,
2013-01-15 12:25:00,20.9,2.4,30.61,North,360,4.0,4.0,44,0.00,,,0.00,Wunderground v.1.15,2013-01-15 19:25:00,
2013-01-15 12:30:00,21.2,2.2,30.61,NW,311,4.0,4.0,43,0.00,,,0.00,Wunderground v.1.15,2013-01-15 19:30:00,
2013-01-15 12:35:00,21.5,2.4,30.61,NW,309,4.0,5.0,43,0.00,,,0.00,Wunderground v.1.15,2013-01-15 19:35:00,
2013-01-15 12:40:00,21.8,3.2,30.60,NNW,334,3.0,3.0,44,0.00,,,0.00,Wunderground v.1.15,2013-01-15 19:40:00,
2013-01-15 12:45:00,22.0,2.4,30.60,NNW,329,3.0,4.0,42,0.00,,,0.00,Wunderground v.1.15,2013-01-15 19:45:00,
2013-01-15 12:50:00,22.1,3.0,30.60,NNE,24,4.0,4.0,43,0.00,,,0.00,Wunderground v.1.15,2013-01-15 19:50:00,
2013-01-15 12:55:00,22.0,2.4,30.60,NNE,32,3.0,6.0,42,0.00,,,0.00,Wunderground v.1.15,2013-01-15 19:55:00,
2013-01-15 13:00:00,22.2,2.6,30.60,ENE,75,3.0,3.0,42,0.00,,,0.00,Wunderground v.1.15,2013-01-15 20:00:00,
2013-01-15 13:05:00,22.6,3.4,30.60,NNW,329,3.0,3.0,43,0.00,,,0.00,Wunderground v.1.15,2013-01-15 20:05:00,
2013-01-15 13:15:00,22.9,2.1,30.61,NNW,327,3.0,3.0,40,0.00,,,0.00,Wunderground v.1.15,2013-01-15 20:15:00,
2013-01-15 13:20:00,22.8,2.0,30.60,WNW,284,3.0,3.0,40,0.00,,,0.00,Wunderground v.1.15,2013-01-15 20:20:00,
2013-01-15 13:25:00,23.0,2.2,30.60,NE,37,3.0,5.0,40,0.00,,,0.00,Wunderground v.1.15,2013-01-15 20:25:00,
2013-01-15 13:30:00,23.3,2.5,30.60,NNW,342,3.0,3.0,40,0.00,,,0.00,Wunderground v.1.15,2013-01-15 20:30:00,
2013-01-15 13:40:00,23.2,1.9,30.59,NNE,24,3.0,3.0,39,0.00,,,0.00,Wunderground v.1.15,2013-01-15 20:40:00,
2013-01-15 13:45:00,23.6,2.2,30.60,NNW,331,4.0,5.0,39,0.00,,,0.00,Wunderground v.1.15,2013-01-15 20:45:00,
2013-01-15 13:50:00,24.0,2.0,30.61,NNW,329,4.0,6.0,38,0.00,,,0.00,Wunderground v.1.15,2013-01-15 20:50:00,
2013-01-15 13:55:00,24.1,3.8,30.61,NW,311,4.0,6.0,41,0.00,,,0.00,Wunderground v.1.15,2013-01-15 20:55:00,
2013-01-15 14:00:00,24.5,1.9,30.60,NNW,345,4.0,4.0,37,0.00,,,0.00,Wunderground v.1.15,2013-01-15 21:00:00,
2013-01-15 14:05:00,24.8,1.6,30.61,WNW,302,4.0,4.0,36,0.00,,,0.00,Wunderground v.1.15,2013-01-15 21:05:00,
2013-01-15 14:10:00,24.9,1.7,30.61,North,5,3.0,6.0,36,0.00,,,0.00,Wunderground v.1.15,2013-01-15 21:10:00,
2013-01-15 14:15:00,24.7,0.9,30.61,North,11,4.0,6.0,35,0.00,,,0.00,Wunderground v.1.15,2013-01-15 21:15:00,
2013-01-15 14:20:00,24.7,1.5,30.61,North,9,4.0,5.0,36,0.00,,,0.00,Wunderground v.1.15,2013-01-15 21:20:00,
2013-01-15 14:25:00,24.8,1.0,30.61,NNW,338,4.0,5.0,35,0.00,,,0.00,Wunderground v.1.15,2013-01-15 21:25:00,
2013-01-15 14:30:00,25.1,1.2,30.62,NNE,24,4.0,4.0,35,0.00,,,0.00,Wunderground v.1.15,2013-01-15 21:30:00,
2013-01-15 14:35:00,25.3,2.0,30.62,WNW,292,3.0,4.0,36,0.00,,,0.00,Wunderground v.1.15,2013-01-15 21:35:00,
2013-01-15 14:40:00,25.6,1.7,30.62,NW,323,3.0,9.0,35,0.00,,,0.00,Wunderground v.1.15,2013-01-15 21:40:00,
2013-01-15 14:45:00,25.2,0.7,30.61,NW,309,5.0,9.0,34,0.00,,,0.00,Wunderground v.1.15,2013-01-15 21:45:00,
2013-01-15 14:50:00,25.1,0.6,30.62,NNW,340,5.0,5.0,34,0.00,,,0.00,Wunderground v.1.15,2013-01-15 21:50:00,
2013-01-15 14:55:00,25.2,0.7,30.63,North,355,4.0,5.0,34,0.00,,,0.00,Wunderground v.1.15,2013-01-15 21:55:00,
2013-01-15 15:00:00,25.4,1.5,30.63,NNW,342,4.0,8.0,35,0.00,,,0.00,Wunderground v.1.15,2013-01-15 22:00:00,
2013-01-15 15:05:00,25.4,0.9,30.64,WNW,294,4.0,8.0,34,0.00,,,0.00,Wunderground v.1.15,2013-01-15 22:05:00,
2013-01-15 15:10:00,25.4,0.9,30.64,NNE,13,4.0,4.0,34,0.00,,,0.00,Wunderground v.1.15,2013-01-15 22:10:00,
2013-01-15 15:15:00,25.2,0.7,30.64,North,5,5.0,5.0,34,0.00,,,0.00,Wunderground v.1.15,2013-01-15 22:15:00,
2013-01-15 15:20:00,25.3,1.4,30.63,NW,311,4.0,5.0,35,0.00,,,0.00,Wunderground v.1.15,2013-01-15 22:20:00,
2013-01-15 15:25:00,25.6,1.7,30.64,ENE,61,4.0,5.0,35,0.00,,,0.00,Wunderground v.1.15,2013-01-15 22:25:00,
2013-01-15 15:30:00,25.8,1.9,30.64,NNW,335,4.0,4.0,35,0.00,,,0.00,Wunderground v.1.15,2013-01-15 22:30:00,
2013-01-15 15:35:00,25.7,2.4,30.64,NNW,327,4.0,4.0,36,0.00,,,0.00,Wunderground v.1.15,2013-01-15 22:35:00,
2013-01-15 15:40:00,25.6,2.3,30.64,NNW,345,5.0,5.0,36,0.00,,,0.00,Wunderground v.1.15,2013-01-15 22:40:00,
2013-01-15 15:45:00,25.6,2.3,30.65,North,5,4.0,5.0,36,0.00,,,0.00,Wunderground v.1.15,2013-01-15 22:45:00,
2013-01-15 15:50:00,25.7,2.4,30.65,North,355,4.0,4.0,36,0.00,,,0.00,Wunderground v.1.15,2013-01-15 22:50:00,
2013-01-15 15:55:00,25.9,2.0,30.65,North,349,3.0,4.0,35,0.00,,,0.00,Wunderground v.1.15,2013-01-15 22:55:00,
2013-01-15 16:00:00,25.9,1.3,30.65,NNW,346,3.0,5.0,34,0.00,,,0.00,Wunderground v.1.15,2013-01-15 23:00:00,
2013-01-15 16:05:00,25.6,1.7,30.66,North,5,3.0,5.0,35,0.00,,,0.00,Wunderground v.1.15,2013-01-15 23:05:00,
2013-01-15 16:10:00,25.7,1.8,30.66,WNW,295,3.0,3.0,35,0.00,,,0.00,Wunderground v.1.15,2013-01-15 23:10:00,
2013-01-15 16:15:00,25.7,1.2,30.66,North,360,4.0,5.0,34,0.00,,,0.00,Wunderground v.1.15,2013-01-15 23:15:00,
2013-01-15 16:20:00,25.2,0.7,30.67,North,360,5.0,6.0,34,0.00,,,0.00,Wunderground v.1.15,2013-01-15 23:20:00,
2013-01-15 16:25:00,25.0,0.5,30.67,North,350,5.0,6.0,34,0.00,,,0.00,Wunderground v.1.15,2013-01-15 23:25:00,
2013-01-15 16:30:00,24.9,0.4,30.66,NNW,327,5.0,5.0,34,0.00,,,0.00,Wunderground v.1.15,2013-01-15 23:30:00,
2013-01-15 16:35:00,24.9,0.4,30.66,NNW,327,5.0,9.0,34,0.00,,,0.00,Wunderground v.1.15,2013-01-15 23:35:00,
2013-01-15 16:40:00,24.5,0.1,30.67,NNW,342,5.0,5.0,34,0.00,,,0.00,Wunderground v.1.15,2013-01-15 23:40:00,
2013-01-15 16:45:00,24.3,-0.1,30.67,NW,325,5.0,5.0,34,0.00,,,0.00,Wunderground v.1.15,2013-01-15 23:45:00,
2013-01-15 16:50:00,24.1,-0.3,30.67,North,355,5.0,5.0,34,0.00,,,0.00,Wunderground v.1.15,2013-01-15 23:50:00,
2013-01-15 16:55:00,23.9,-0.4,30.67,NNW,333,4.0,5.0,34,0.00,,,0.00,Wunderground v.1.15,2013-01-15 23:55:00,
2013-01-15 17:00:00,23.8,-0.5,30.67,NW,325,4.0,4.0,34,0.00,,,0.00,Wunderground v.1.15,2013-01-16 00:00:00,
2013-01-15 17:05:00,23.6,-0.1,30.67,NNW,328,4.0,4.0,35,0.00,,,0.00,Wunderground v.1.15,2013-01-16 00:05:00,
2013-01-15 17:10:00,23.4,-0.3,30.68,NNW,335,3.0,3.0,35,0.00,,,0.00,Wunderground v.1.15,2013-01-16 00:10:00,
2013-01-15 17:20:00,23.0,-0.6,30.68,North,5,2.0,2.0,35,0.00,,,0.00,Wunderground v.1.15,2013-01-16 00:20:00,
2013-01-15 17:25:00,22.9,-1.3,30.68,NNE,17,3.0,3.0,34,0.00,,,0.00,Wunderground v.1.15,2013-01-16 00:25:00,
2013-01-15 17:30:00,22.7,-0.9,30.68,NNE,13,3.0,4.0,35,0.00,,,0.00,Wunderground v.1.15,2013-01-16 00:30:00,
2013-01-15 17:35:00,22.5,-1.1,30.68,NNW,348,3.0,4.0,35,0.00,,,0.00,Wunderground v.1.15,2013-01-16 00:35:00,
2013-01-15 17:40:00,22.5,-1.1,30.68,ENE,71,4.0,4.0,35,0.00,,,0.00,Wunderground v.1.15,2013-01-16 00:40:00,
2013-01-15 17:45:00,22.3,-0.7,30.68,NNE,18,4.0,4.0,36,0.00,,,0.00,Wunderground v.1.15,2013-01-16 00:45:00,
2013-01-15 17:50:00,22.2,-0.7,30.69,NNW,347,3.0,4.0,36,0.00,,,0.00,Wunderground v.1.15,2013-01-16 00:50:00,
2013-01-15 17:55:00,22.1,-0.8,30.69,North,355,2.0,4.0,36,0.00,,,0.00,Wunderground v.1.15,2013-01-16 00:55:00,
2013-01-15 18:00:00,21.9,-0.4,30.69,NW,321,2.0,6.0,37,0.00,,,0.00,Wunderground v.1.15,2013-01-16 01:00:00,
2013-01-15 18:05:00,21.8,-0.5,30.69,North,349,2.0,6.0,37,0.00,,,0.00,Wunderground v.1.15,2013-01-16 01:05:00,
2013-01-15 18:10:00,21.8,-0.5,30.69,NW,326,3.0,3.0,37,0.00,,,0.00,Wunderground v.1.15,2013-01-16 01:10:00,
2013-01-15 18:15:00,21.7,-0.6,30.69,NNW,344,3.0,3.0,37,0.00,,,0.00,Wunderground v.1.15,2013-01-16 01:15:00,
2013-01-15 18:20:00,21.6,-0.1,30.70,WNW,303,3.0,3.0,38,0.00,,,0.00,Wunderground v.1.15,2013-01-16 01:20:00,
2013-01-15 18:25:00,21.5,-0.2,30.70,WNW,295,3.0,3.0,38,0.00,,,0.00,Wunderground v.1.15,2013-01-16 01:25:00,
2013-01-15 18:30:00,21.3,-0.4,30.70,NNW,333,3.0,3.0,38,0.00,,,0.00,Wunderground v.1.15,2013-01-16 01:30:00,
2013-01-15 18:35:00,21.2,0.1,30.70,NNW,335,2.0,3.0,39,0.00,,,0.00,Wunderground v.1.15,2013-01-16 01:35:00,
2013-01-15 18:40:00,21.0,-0.1,30.71,NNW,335,1.0,1.0,39,0.00,,,0.00,Wunderground v.1.15,2013-01-16 01:40:00,
2013-01-15 18:45:00,20.7,-0.4,30.71,NW,324,0.0,1.0,39,0.00,,,0.00,Wunderground v.1.15,2013-01-16 01:45:00,
2013-01-15 18:49:00,20.6,0.1,30.71,NNW,330,1.0,1.0,40,0.00,,,0.00,Wunderground v.1.15,2013-01-16 01:49:00,
2013-01-15 18:55:00,20.5,0.0,30.72,NNW,330,1.0,1.0,40,0.00,,,0.00,Wunderground v.1.15,2013-01-16 01:55:00,
2013-01-15 19:00:00,20.3,0.3,30.72,NNW,330,1.0,2.0,41,0.00,,,0.00,Wunderground v.1.15,2013-01-16 02:00:00,
2013-01-15 19:05:00,20.2,0.2,30.72,NNW,331,1.0,2.0,41,0.00,,,0.00,Wunderground v.1.15,2013-01-16 02:05:00,
2013-01-15 19:10:00,20.1,0.1,30.73,NNW,331,1.0,2.0,41,0.00,,,0.00,Wunderground v.1.15,2013-01-16 02:10:00,
2013-01-15 19:20:00,19.8,0.4,30.73,NNW,331,1.0,1.0,42,0.00,,,0.00,Wunderground v.1.15,2013-01-16 02:20:00,
2013-01-15 19:25:00,19.7,0.3,30.73,NNW,344,1.0,1.0,42,0.00,,,0.00,Wunderground v.1.15,2013-01-16 02:25:00,
2013-01-15 19:30:00,19.7,0.3,30.73,NNW,344,0.0,0.0,42,0.00,,,0.00,Wunderground v.1.15,2013-01-16 02:30:00,
2013-01-15 19:35:00,19.5,0.1,30.73,NNW,344,0.0,0.0,42,0.00,,,0.00,Wunderground v.1.15,2013-01-16 02:35:00,
2013-01-15 19:40:00,19.4,0.0,30.73,NNW,344,1.0,1.0,42,0.00,,,0.00,Wunderground v.1.15,2013-01-16 02:40:00,
2013-01-15 19:45:00,19.4,0.0,30.73,NNW,344,1.0,1.0,42,0.00,,,0.00,Wunderground v.1.15,2013-01-16 02:45:00,
2013-01-15 19:50:00,19.3,0.4,30.73,NNW,344,1.0,3.0,43,0.00,,,0.00,Wunderground v.1.15,2013-01-16 02:50:00,
2013-01-15 19:55:00,19.4,0.0,30.73,North,355,1.0,3.0,42,0.00,,,0.00,Wunderground v.1.15,2013-01-16 02:55:00,
2013-01-15 20:00:00,19.3,-0.1,30.73,North,355,1.0,1.0,42,0.00,,,0.00,Wunderground v.1.15,2013-01-16 03:00:00,
2013-01-15 20:05:00,19.1,0.2,30.73,North,355,0.0,1.0,43,0.00,,,0.00,Wunderground v.1.15,2013-01-16 03:05:00,
2013-01-15 20:10:00,18.8,0.0,30.74,North,355,0.0,0.0,43,0.00,,,0.00,Wunderground v.1.15,2013-01-16 03:10:00,
2013-01-15 20:15:00,18.5,0.2,30.74,North,355,0.0,0.0,44,0.00,,,0.00,Wunderground v.1.15,2013-01-16 03:15:00,
2013-01-15 20:20:00,18.5,0.2,30.74,North,355,0.0,0.0,44,0.00,,,0.00,Wunderground v.1.15,2013-01-16 03:20:00,
2013-01-15 20:25:00,18.4,0.1,30.74,North,355,0.0,0.0,44,0.00,,,0.00,Wunderground v.1.15,2013-01-16 03:25:00,
2013-01-15 20:30:00,18.0,-0.3,30.75,North,355,0.0,0.0,44,0.00,,,0.00,Wunderground v.1.15,2013-01-16 03:30:00,
2013-01-15 20:35:00,17.6,0.3,30.74,North,355,0.0,0.0,46,0.00,,,0.00,Wunderground v.1.15,2013-01-16 03:35:00,
2013-01-15 20:40:00,17.5,0.7,30.74,North,355,0.0,0.0,47,0.00,,,0.00,Wunderground v.1.15,2013-01-16 03:40:00,
2013-01-15 20:45:00,17.4,0.6,30.74,North,355,0.0,0.0,47,0.00,,,0.00,Wunderground v.1.15,2013-01-16 03:45:00,
2013-01-15 20:50:00,17.2,0.4,30.74,North,355,0.0,0.0,47,0.00,,,0.00,Wunderground v.1.15,2013-01-16 03:50:00,
2013-01-15 20:55:00,17.0,0.2,30.74,North,355,0.0,0.0,47,0.00,,,0.00,Wunderground v.1.15,2013-01-16 03:55:00,
2013-01-15 21:00:00,16.9,0.1,30.75,North,355,0.0,0.0,47,0.00,,,0.00,Wunderground v.1.15,2013-01-16 04:00:00,
2013-01-15 21:05:00,16.9,0.6,30.75,North,355,0.0,0.0,48,0.00,,,0.00,Wunderground v.1.15,2013-01-16 04:05:00,
2013-01-15 21:10:00,16.6,0.3,30.76,North,355,0.0,0.0,48,0.00,,,0.00,Wunderground v.1.15,2013-01-16 04:10:00,
2013-01-15 21:15:00,16.2,0.4,30.76,North,355,0.0,0.0,49,0.00,,,0.00,Wunderground v.1.15,2013-01-16 04:15:00,
2013-01-15 21:20:00,15.8,0.4,30.76,North,355,0.0,0.0,50,0.00,,,0.00,Wunderground v.1.15,2013-01-16 04:20:00,
2013-01-15 21:25:00,15.5,0.6,30.76,North,355,0.0,0.0,51,0.00,,,0.00,Wunderground v.1.15,2013-01-16 04:25:00,
2013-01-15 21:30:00,15.2,0.3,30.76,North,355,0.0,0.0,51,0.00,,,0.00,Wunderground v.1.15,2013-01-16 04:30:00,
2013-01-15 21:35:00,15.0,0.5,30.76,North,355,0.0,0.0,52,0.00,,,0.00,Wunderground v.1.15,2013-01-16 04:35:00,
2013-01-15 21:40:00,14.8,0.7,30.76,North,355,0.0,0.0,53,0.00,,,0.00,Wunderground v.1.15,2013-01-16 04:40:00,
2013-01-15 21:45:00,14.7,0.6,30.75,North,355,0.0,0.0,53,0.00,,,0.00,Wunderground v.1.15,2013-01-16 04:45:00,
2013-01-15 21:50:00,14.9,0.8,30.76,North,355,0.0,0.0,53,0.00,,,0.00,Wunderground v.1.15,2013-01-16 04:50:00,
2013-01-15 21:55:00,15.3,0.4,30.76,North,355,0.0,0.0,51,0.00,,,0.00,Wunderground v.1.15,2013-01-16 04:55:00,
2013-01-15 22:00:00,16.0,0.6,30.76,North,355,0.0,0.0,50,0.00,,,0.00,Wunderground v.1.15,2013-01-16 05:00:00,
2013-01-15 22:05:00,16.3,0.5,30.77,North,355,0.0,0.0,49,0.00,,,0.00,Wunderground v.1.15,2013-01-16 05:05:00,
2013-01-15 22:10:00,16.3,0.9,30.77,North,355,0.0,0.0,50,0.00,,,0.00,Wunderground v.1.15,2013-01-16 05:10:00,
2013-01-15 22:15:00,16.1,0.7,30.77,North,355,0.0,0.0,50,0.00,,,0.00,Wunderground v.1.15,2013-01-16 05:15:00,
2013-01-15 22:20:00,15.7,0.7,30.77,North,355,0.0,0.0,51,0.00,,,0.00,Wunderground v.1.15,2013-01-16 05:20:00,
2013-01-15 22:25:00,15.2,0.7,30.78,North,355,0.0,0.0,52,0.00,,,0.00,Wunderground v.1.15,2013-01-16 05:25:00,
2013-01-15 22:30:00,14.8,0.3,30.77,North,355,0.0,0.0,52,0.00,,,0.00,Wunderground v.1.15,2013-01-16 05:30:00,
2013-01-15 22:35:00,14.3,0.3,30.78,North,355,0.0,0.0,53,0.00,,,0.00,Wunderground v.1.15,2013-01-16 05:35:00,
2013-01-15 22:40:00,14.0,0.4,30.78,North,355,0.0,0.0,54,0.00,,,0.00,Wunderground v.1.15,2013-01-16 05:40:00,
2013-01-15 22:45:00,14.3,0.7,30.78,North,355,0.0,0.0,54,0.00,,,0.00,Wunderground v.1.15,2013-01-16 05:45:00,
2013-01-15 22:50:00,14.5,0.5,30.79,North,355,0.0,0.0,53,0.00,,,0.00,Wunderground v.1.15,2013-01-16 05:50:00,
2013-01-15 22:55:00,15.3,0.4,30.79,North,355,0.0,2.0,51,0.00,,,0.00,Wunderground v.1.15,2013-01-16 05:55:00,
2013-01-15 23:00:00,16.3,0.5,30.78,North,355,1.0,2.0,49,0.00,,,0.00,Wunderground v.1.15,2013-01-16 06:00:00,
2013-01-15 23:10:00,17.9,0.6,30.79,North,355,1.0,2.0,46,0.00,,,0.00,Wunderground v.1.15,2013-01-16 06:10:00,
2013-01-15 23:14:00,18.3,0.5,30.79,North,360,1.0,2.0,45,0.00,,,0.00,Wunderground v.1.15,2013-01-16 06:14:00,
2013-01-15 23:20:00,18.5,0.2,30.79,NNE,15,1.0,1.0,44,0.00,,,0.00,Wunderground v.1.15,2013-01-16 06:20:00,
2013-01-15 23:25:00,19.0,0.6,30.79,North,355,2.0,3.0,44,0.00,,,0.00,Wunderground v.1.15,2013-01-16 06:25:00,
2013-01-15 23:30:00,19.4,0.5,30.79,NNE,30,2.0,2.0,43,0.00,,,0.00,Wunderground v.1.15,2013-01-16 06:30:00,
2013-01-15 23:35:00,19.7,0.8,30.79,NNE,17,2.0,2.0,43,0.00,,,0.00,Wunderground v.1.15,2013-01-16 06:35:00,
2013-01-15 23:40:00,19.7,0.3,30.79,NNE,17,2.0,2.0,42,0.00,,,0.00,Wunderground v.1.15,2013-01-16 06:40:00,
2013-01-15 23:45:00,19.5,0.1,30.80,NNE,15,1.0,2.0,42,0.00,,,0.00,Wunderground v.1.15,2013-01-16 06:45:00,
2013-01-15 23:50:00,19.5,0.1,30.79,NNE,15,1.0,3.0,42,0.00,,,0.00,Wunderground v.1.15,2013-01-16 06:50:00,
2013-01-15 23:55:00,19.3,0.4,30.79,NNE,15,1.0,3.0,43,0.00,,,0.00,Wunderground v.1.15,2013-01-16 06:55:00,